IRIDIUM 46 [+]

Last updated on Thu Feb 08 2018 00:19:33 GMT+0000 (Coordinated Universal Time)

1 24905U 97043C 18038.48154127 .00000020 00000-0 13178-6 0 9993 2 24905 86.4012 157.1394 0004802 32.1979 327.9512 14.39721486 71550
UTC large
Height (km)
Speed (km/s)
/
Latitude / Longitude
Inclination (degrees)
Orbital Period (minutes)
Azimuth
Elevation
Range (km)
Doppler Factor

Next 0 passes for location: London (51.5072 / 0.1276)

Sorry there are no passes over London.